Grand Prairie, TX

7:33 AM CDT on September 20, 2017 (GMT -0500)
Grand Prairie Municipal

Weather History for KGPM - March, 2014

Change the Weather History Date:

Tuesday, March 4, 2014

  Actual Average (KRBD) Record (KRBD)
Temperature  
Mean Temperature 38 °F -  
Max Temperature 50 °F 60 °F 87 °F (2013)
Min Temperature 26 °F 41 °F 19 °F (2002)
Degree Days  
Heating Degree Days 27    
Moisture  
Dew Point 23 °F    
Average Humidity 67    
Maximum Humidity 87    
Minimum Humidity 37    
Precipitation  
Precipitation 0.00 in - - ()
Sea Level Pressure  
Sea Level Pressure 30.19 in    
Wind  
Wind Speed 2 mph (East)    
Max Wind Speed 9 mph    
Max Gust Speed -    
Visibility 10 miles    
Events      
Averages and records for this station are not official NWS values.
T = Trace of Precipitation, MM = Missing Value Source: NWS Daily Summary

Daily Weather History Graph

Daily Weather History Graph

Search for Another Location

Airport or City:

Trip Planner

Search our weather history database for the weather conditions in past years. The results will help you decide how hot, cold, wet, or windy it might be!

Date:

Astronomy

Mar. 04, 2014 Rise Set
Actual Time 6:52 AM CST 6:27 PM CST
Civil Twilight 6:27 AM CST 6:52 PM CST
Nautical Twilight 5:59 AM CST 7:21 PM CST
Astronomical Twilight 5:30 AM CST 7:49 PM CST
Moon 8:52 AM CST (3/4) 10:21 PM CST (3/4)
Length of Visible Light 12h 24m
Length of Day
11h 35m
Waxing Crescent, 15% of the Moon is Illuminated
Mar 4
Waxing Crescent
Mar 8
First Quarter
Mar 16
Full
Mar 23
Last Quarter
Mar 30
New

Hourly Weather History & Observations

Time (CST) Temp. Windchill Dew Point Humidity Pressure Visibility Wind Dir Wind Speed Gust Speed Precip Events Conditions
12:15 AM 28.4 °F - 17.6 °F 64% 30.35 in 10.0 mi Calm Calm - N/A   Clear
12:35 AM 28.4 °F - 17.6 °F 64% 30.33 in 10.0 mi Calm Calm - N/A   Clear
12:55 AM 28.4 °F - 19.4 °F 69% 30.31 in 10.0 mi Calm Calm - N/A   Clear
1:15 AM 28.4 °F 24.6 °F 19.4 °F 69% 30.30 in 10.0 mi ENE 3.5 mph - N/A   Clear
1:40 AM 28.4 °F - 19.4 °F 69% 30.29 in 10.0 mi Calm Calm - N/A   Clear
1:55 AM 28.4 °F 24.6 °F 19.4 °F 69% 30.28 in 10.0 mi NE 3.5 mph - N/A   Clear
2:15 AM 28.4 °F 20.4 °F 19.4 °F 69% 30.24 in 10.0 mi NE 8.1 mph - N/A   Clear
2:35 AM 28.4 °F 20.4 °F 19.4 °F 69% 30.23 in 10.0 mi NNE 8.1 mph - N/A   Clear
2:55 AM 28.4 °F 20.4 °F 19.4 °F 69% 30.24 in 10.0 mi NE 8.1 mph - N/A   Clear
3:15 AM 28.4 °F 23.3 °F 17.6 °F 64% 30.24 in 10.0 mi NE 4.6 mph - N/A   Clear
3:35 AM 28.4 °F - 19.4 °F 69% 30.25 in 10.0 mi Calm Calm - N/A   Clear
3:55 AM 28.4 °F 24.6 °F 17.6 °F 64% 30.24 in 10.0 mi North 3.5 mph - N/A   Clear
4:15 AM 28.4 °F - 19.4 °F 69% 30.25 in 10.0 mi Calm Calm - N/A   Clear
4:35 AM 28.4 °F - 19.4 °F 69% 30.26 in 10.0 mi Calm Calm - N/A   Clear
4:55 AM 28.4 °F - 19.4 °F 69% 30.25 in 10.0 mi Calm Calm - N/A   Clear
5:15 AM 28.4 °F - 17.6 °F 64% 30.25 in 10.0 mi Calm Calm - N/A   Clear
5:35 AM 28.4 °F - 19.4 °F 69% 30.25 in 10.0 mi Calm Calm - N/A   Clear
5:55 AM 28.4 °F - 19.4 °F 69% 30.26 in 10.0 mi Calm Calm - N/A   Clear
7:50 AM 28.4 °F - 19.4 °F 69% 30.26 in 10.0 mi Calm Calm - N/A   Mostly Cloudy
8:50 AM 28.4 °F - 19.4 °F 69% 30.28 in 10.0 mi Calm Calm - N/A   Mostly Cloudy
9:50 AM 30.2 °F - 19.4 °F 64% 30.26 in 10.0 mi Calm Calm - N/A   Mostly Cloudy
10:50 AM 33.8 °F - 21.2 °F 60% 30.24 in 10.0 mi Calm Calm - N/A   Mostly Cloudy
11:50 AM 26.6 °F - 21.2 °F 80% 30.21 in 10.0 mi Calm Calm - N/A   Clear
12:50 PM 41.0 °F 38.0 °F 23.0 °F 49% 30.16 in 10.0 mi SSE 4.6 mph - N/A   Clear
1:50 PM 44.6 °F - 24.8 °F 46% 30.13 in 10.0 mi Calm Calm - N/A   Clear
2:50 PM 46.4 °F - 24.8 °F 43% 30.11 in 10.0 mi Calm Calm - N/A   Clear
3:50 PM 48.2 °F - 24.8 °F 40% 30.09 in 10.0 mi SSE 6.9 mph - N/A   Clear
4:50 PM 50.0 °F - 24.8 °F 37% 30.08 in 10.0 mi SE 9.2 mph - N/A   Clear
5:50 PM 48.2 °F - 28.4 °F 46% 30.06 in 10.0 mi SE 6.9 mph - N/A   Clear
8:15 PM 41.0 °F 36.4 °F 30.2 °F 65% 30.05 in 10.0 mi ESE 6.9 mph - N/A   Clear
8:35 PM 41.0 °F 35.2 °F 30.2 °F 65% 30.06 in 10.0 mi ESE 9.2 mph - N/A   Clear
8:55 PM 39.2 °F 35.0 °F 30.2 °F 70% 30.06 in 10.0 mi ESE 5.8 mph - N/A   Clear
9:15 PM 39.2 °F 33.6 °F 30.2 °F 70% 30.06 in 10.0 mi SE 8.1 mph - N/A   Clear
9:35 PM 37.4 °F 32.8 °F 30.2 °F 75% 30.08 in 10.0 mi SE 5.8 mph - N/A   Clear
9:55 PM 37.4 °F 32.8 °F 32.0 °F 81% 30.08 in 10.0 mi SE 5.8 mph - N/A   Clear
10:15 PM 37.4 °F 33.8 °F 32.0 °F 81% 30.08 in 10.0 mi ESE 4.6 mph - N/A   Clear
10:35 PM 37.4 °F 32.8 °F 32.0 °F 81% 30.07 in 10.0 mi ESE 5.8 mph - N/A   Clear
10:55 PM 35.6 °F - 32.0 °F 87% 30.07 in 10.0 mi Calm Calm - N/A   Clear
11:15 PM 35.6 °F - 32.0 °F 87% 30.08 in 10.0 mi Calm Calm - N/A   Clear
11:35 PM 35.6 °F - 30.2 °F 81% 30.09 in 10.0 mi Calm Calm - N/A   Clear